CW8078 Weather Reports


time (UTC)temp
F
wind
direction
speed
knots
gust
knots
rain 1hr
in
rain 24hr
in
rain mn
in
humidity
%
barometer
mb
20220124110804 38 185 0.9 2.6 0.00 0.00 0.00 72 1005.3
20220124110305 38 185 0.9 2.6 0.00 0.00 0.00 72 1005.3
20220124103805 38 200 0.0 0.0 0.00 0.00 0.00 71 1005.5
20220124103305 38 201 0.0 2.6 0.00 0.00 0.00 71 1005.6
20220124100805 38 211 0.0 0.0 0.00 0.00 0.00 71 1006.2
20220124100305 37 205 0.9 4.3 0.00 0.00 0.00 71 1006.2
20220124093804 36 187 0.9 5.2 0.00 0.00 0.00 73 1006.5
20220124093305 35 196 0.9 5.2 0.00 0.00 0.00 74 1006.5
20220124090804 32 169 0.0 0.0 0.00 0.00 0.00 72 1007.2
20220124090305 32 169 0.0 0.0 0.00 0.00 0.00 72 1007.3
20220124083804 32 179 0.9 2.6 0.00 0.00 0.00 70 1007.7
20220124083305 32 174 0.0 4.3 0.00 0.00 0.00 70 1007.7
20220124080806 31 181 0.0 0.0 0.00 0.00 0.00 70 1008.3
20220124080304 31 174 0.0 6.1 0.00 0.00 0.00 70 1008.4
20220124073804 30 178 0.0 0.0 0.00 0.00 0.00 70 1008.9
20220124073306 30 182 0.0 4.3 0.00 0.00 0.00 71 1008.9
20220124070805 29 178 0.0 0.0 0.00 0.00 0.00 70 1009.5
20220124070306 29 178 0.0 5.2 0.00 0.00 0.00 70 1009.6
20220124063805 29 185 0.0 5.2 0.00 0.00 0.00 70 1010.1
20220124063304 29 158 0.0 5.2 0.00 0.00 0.00 70 1010.2
20220124060816 28 162 0.0 5.2 0.00 0.00 0.00 71 1010.8
20220124060304 28 173 0.9 7.8 0.00 0.00 0.00 71 1010.9
20220124053804 28 138 0.0 0.0 0.00 0.00 0.00 71 1011.6
20220124053305 28 160 0.0 6.1 0.00 0.00 0.00 72 1011.7
20220124050805 27 169 0.9 6.1 0.00 0.00 0.00 72 1012.1
20220124050306 27 160 0.0 4.3 0.00 0.00 0.00 73 1012.2
20220124043804 27 159 0.0 0.0 0.00 0.00 0.00 73 1012.8
20220124043304 27 140 0.0 0.0 0.00 0.00 0.00 73 1013.0
20220124040805 27 158 0.0 0.0 0.00 0.00 0.00 74 1013.6
20220124040304 27 157 0.0 0.0 0.00 0.00 0.00 73 1013.6
20220124033804 26 157 0.0 0.0 0.00 0.00 0.00 74 1013.9
20220124033305 26 157 0.0 0.9 0.00 0.00 0.00 73 1014.1
20220124030804 26 157 0.0 0.0 0.00 0.00 0.00 73 1014.5
20220124030304 26 157 0.0 0.0 0.00 0.00 0.00 74 1014.5
20220124023804 26 101 0.0 0.0 0.00 0.00 0.00 74 1014.8
20220124023305 26 101 0.0 0.0 0.00 0.00 0.00 74 1015.0
20220124020804 25 101 0.0 0.0 0.00 0.00 0.00 74 1015.1
20220124020305 25 38 0.0 0.0 0.00 0.00 0.00 74 1015.1
20220124013805 26 38 0.0 0.0 0.00 0.00 0.00 74 1015.5
20220124013305 26 38 0.0 0.0 0.00 0.00 0.00 73 1015.4
20220124010805 26 38 0.0 0.0 0.00 0.00 0.00 74 1016.1
20220124010305 26 38 0.0 0.0 0.00 0.00 0.00 73 1016.3
20220124003805 27 36 0.0 0.0 0.00 0.00 0.00 72 1016.7
20220124003305 27 36 0.0 0.0 0.00 0.00 0.00 71 1016.6
20220124000804 28 36 0.0 0.0 0.00 0.00 0.00 71 1016.6
20220124000304 28 36 0.0 0.0 0.00 0.00 0.00 71 1016.6
20220123233805 28 36 0.0 0.0 0.00 0.00 0.00 69 1016.6
20220123233306 29 36 0.0 0.0 0.00 0.00 0.00 69 1016.7
20220123230805 29 315 0.0 0.0 0.00 0.00 0.00 67 1016.9
20220123230304 30 10 0.0 2.6 0.00 0.00 0.00 67 1016.7
20220123223804 30 351 0.0 0.0 0.00 0.00 0.00 66 1016.8
20220123223305 30 17 0.0 7.0 0.00 0.00 0.00 66 1016.9
20220123220804 31 345 0.0 0.0 0.00 0.00 0.00 65 1017.1
20220123220305 31 7 0.0 6.1 0.00 0.00 0.00 66 1017.0
20220123213804 32 323 0.0 0.9 0.00 0.00 0.00 64 1016.6
20220123213304 32 0 0.9 6.1 0.00 0.00 0.00 63 1016.6
20220123210805 32 2 0.0 8.7 0.00 0.00 0.00 62 1015.8
20220123210305 33 20 0.9 7.8 0.00 0.00 0.00 62 1016.0
20220123203804 34 353 0.0 0.0 0.00 0.00 0.00 61 1016.8
20220123203304 34 327 0.0 7.0 0.00 0.00 0.00 61 1016.7
20220123200804 34 26 0.9 11.3 0.00 0.00 0.00 61 1016.5
20220123200305 34 285 0.9 7.0 0.00 0.00 0.00 64 1016.5
20220123193805 34 308 0.0 4.3 0.00 0.00 0.00 63 1017.1
20220123193304 34 346 1.7 10.4 0.00 0.00 0.00 62 1017.0
20220123190804 35 298 0.0 2.6 0.00 0.00 0.00 62 1017.7
20220123190305 35 352 0.0 11.3 0.00 0.00 0.00 61 1017.9
20220123183804 35 341 0.9 7.8 0.00 0.00 0.00 60 1018.0
20220123183304 35 349 0.0 13.0 0.00 0.00 0.00 62 1018.0
20220123180804 34 345 2.6 10.4 0.00 0.00 0.00 64 1018.5
20220123180305 34 351 1.7 11.3 0.00 0.00 0.00 64 1018.5
20220123173804 32 351 1.7 7.0 0.00 0.00 0.00 68 1018.8
20220123173305 32 352 1.7 11.3 0.00 0.00 0.00 67 1018.8
20220123170804 34 311 2.6 10.4 0.00 0.00 0.00 69 1018.6
20220123170305 34 343 0.9 12.2 0.00 0.00 0.00 70 1018.5
20220123163805 35 283 1.7 8.7 0.00 0.00 0.00 71 1018.0
20220123163305 35 323 1.7 12.2 0.00 0.00 0.00 71 1017.9
20220123160805 37 332 4.3 14.8 0.00 0.00 0.00 71 1017.5
20220123160304 37 0 4.3 13.9 0.00 0.00 0.00 71 1017.4
20220123153805 38 302 0.9 7.8 0.00 0.00 0.00 71 1016.8
20220123153304 38 315 0.9 13.0 0.00 0.00 0.00 71 1016.6
20220123150805 39 307 3.5 8.7 0.00 0.00 0.00 65 1016.2
20220123150304 39 340 4.3 8.7 0.00 0.00 0.00 65 1016.2
20220123143805 38 306 0.0 2.6 0.00 0.00 0.00 63 1015.9
20220123143304 38 274 0.9 4.3 0.00 0.00 0.00 63 1015.8
20220123140805 37 263 0.9 2.6 0.00 0.00 0.00 63 1015.5
20220123140305 37 227 0.0 0.0 0.00 0.00 0.00 62 1015.4
20220123133804 37 247 0.0 0.0 0.00 0.00 0.00 61 1015.3
20220123133306 37 254 0.0 0.0 0.00 0.00 0.00 61 1015.3
20220123130804 37 263 0.0 0.0 0.00 0.00 0.00 60 1015.1
20220123130304 37 263 0.0 0.0 0.00 0.00 0.00 59 1015.1
20220123123804 37 218 0.0 0.0 0.00 0.00 0.00 58 1015.0
20220123123304 37 217 0.0 0.0 0.00 0.00 0.00 58 1015.0
20220123120804 37 218 0.0 0.0 0.00 0.00 0.00 57 1014.8
20220123120304 37 217 0.0 0.0 0.00 0.00 0.00 57 1014.7
20220123113804 37 232 0.0 0.0 0.00 0.00 0.00 57 1014.9
20220123113304 37 227 0.9 2.6 0.00 0.00 0.00 56 1015.0